Date,TemperatureHighF,TemperatureAvgF,TemperatureLowF,DewpointHighF,DewpointAvgF,DewpointLowF,HumidityHigh,HumidityAvg,HumidityLow,PressureMaxIn,PressureMinIn,WindSpeedMaxMPH,WindSpeedAvgMPH,GustSpeedMaxMPH,PrecipitationSumIn
2013-1-1,23.5,16.0,7.9,11.2,7.6,1.3,77,69,55,30.29,30.08,12,2,14,0.00
2013-1-2,38.3,26.6,0.0,28.6,19.8,9.5,81,75,65,30.19,30.01,7,2,9,0.00
2013-1-3,31.1,25.6,18.7,26.0,18.5,12.6,81,75,62,30.39,30.19,15,4,19,0.00
2013-1-4,34.0,24.5,18.5,21.1,16.6,13.3,82,72,59,30.29,30.10,11,4,13,0.00
2013-1-5,31.6,24.7,16.0,24.3,17.5,10.0,83,74,64,30.18,29.96,16,4,21,0.00
2013-1-6,34.3,25.1,14.7,23.0,17.8,9.1,79,74,62,30.30,30.09,13,3,22,0.00
2013-1-7,44.2,33.1,0.0,30.2,24.7,18.7,81,71,56,30.09,29.92,14,4,18,0.00
2013-1-8,42.6,31.2,19.2,31.4,24.0,13.1,84,75,63,30.10,29.81,17,2,23,0.00
2013-1-9,46.6,34.9,24.4,33.4,27.6,19.8,84,75,58,30.40,30.10,7,1,14,0.00
2013-1-10,42.8,37.8,32.5,34.8,30.5,26.0,89,75,55,30.29,29.66,15,4,26,0.06
2013-1-11,38.1,37.5,36.9,35.4,34.8,34.4,91,90,89,29.67,29.55,9,3,11,0.00
2013-2-3,41.9,33.8,22.6,28.4,23.4,15.0,73,66,55,30.18,29.77,11,5,11,0.12
2013-2-4,35.8,29.3,24.1,27.9,22.1,19.4,84,74,65,29.99,29.74,11,4,11,0.00
2013-2-5,47.1,35.8,27.7,33.0,26.6,22.7,84,71,48,30.04,29.80,10,4,10,0.00
2013-2-6,51.4,40.7,30.0,36.8,31.1,24.3,80,70,55,30.04,29.81,12,3,12,0.00
2013-2-7,40.8,35.0,30.6,33.8,28.6,23.6,84,78,73,30.20,29.85,13,5,13,0.00
2013-2-8,35.4,30.7,27.1,26.2,24.2,22.3,84,77,68,30.30,30.11,16,5,16,0.00
2013-2-9,47.3,37.7,28.6,36.4,31.1,24.7,86,78,66,30.13,29.66,14,9,14,0.00
2013-2-10,46.2,35.5,30.6,41.7,28.0,22.2,91,74,69,29.77,29.24,18,9,27,0.02
2013-2-11,38.8,31.6,24.4,24.9,22.3,17.8,76,69,56,30.13,29.77,26,5,28,0.00
2013-2-12,46.6,32.6,21.7,28.2,21.3,16.1,81,65,43,30.12,29.87,11,2,20,0.00
2013-2-13,51.6,37.6,24.4,33.1,25.2,18.2,79,63,43,29.88,29.70,12,2,17,0.00
2013-2-14,46.6,37.6,23.9,32.2,26.4,15.2,80,65,43,30.25,29.76,32,6,32,0.00
2013-2-15,37.6,26.2,17.8,21.6,16.1,10.5,80,67,43,30.33,30.25,12,3,15,0.00
2013-2-16,38.3,26.4,12.6,25.6,17.6,5.8,78,70,59,30.30,29.98,14,4,17,0.00
2013-2-17,52.3,38.4,25.5,34.7,27.1,19.3,77,65,50,29.98,29.54,22,6,31,0.00
2013-2-18,43.5,32.8,22.6,31.7,23.9,13.3,82,70,56,30.04,29.52,27,8,31,0.00
2013-2-19,25.2,17.4,10.9,14.0,3.8,-0.1,70,56,36,30.36,30.04,22,7,24,0.00
2013-2-20,26.8,18.3,6.4,7.3,3.0,-3.1,66,52,41,30.37,30.18,10,4,15,0.00
2013-2-21,26.8,23.4,21.6,21.0,13.7,6.5,86,67,48,30.21,29.81,21,7,25,0.00
2013-2-22,31.8,22.7,12.9,20.3,15.2,6.4,84,73,58,30.01,29.81,12,4,17,0.00
2013-2-23,39.0,23.0,6.1,26.3,14.7,-1.1,79,71,60,29.99,29.80,14,3,17,0.02
2013-2-24,47.1,33.7,23.5,29.9,24.6,18.6,82,70,50,30.05,29.86,9,2,13,0.00
2013-2-25,37.9,30.7,27.1,28.3,24.7,22.4,88,78,67,30.06,29.90,15,6,19,0.00
2013-2-26,35.2,30.1,26.2,29.0,25.5,23.1,89,83,76,29.90,29.76,20,7,20,0.00
2013-2-27,40.1,31.5,25.5,25.8,23.3,20.1,83,72,55,30.08,29.87,18,8,28,0.00
2013-2-28,38.8,30.2,27.0,26.5,22.5,19.9,79,73,60,30.21,30.07,17,7,25,0.00
2013-3-1,32.9,27.9,24.6,23.3,18.9,15.5,77,69,56,30.33,30.19,14,6,25,0.00
2013-3-2,42.1,30.3,23.0,22.9,18.9,15.2,72,63,45,30.32,30.07,10,3,14,0.00
2013-3-3,45.1,35.1,27.7,29.4,25.1,21.4,77,67,53,30.08,29.69,24,7,26,0.00
2013-3-4,46.9,36.8,30.9,30.8,27.1,23.2,82,68,52,30.00,29.64,14,5,23,0.00
2013-3-5,34.0,29.2,25.3,27.8,19.0,15.8,78,65,60,30.36,29.99,23,9,33,0.00
2013-3-6,39.4,30.0,22.5,22.6,19.3,15.3,74,65,50,30.40,30.21,14,4,18,0.00
2013-3-7,49.6,35.9,25.3,30.2,24.3,18.5,75,64,47,30.25,30.07,19,6,26,0.00
2013-3-8,55.4,42.5,31.6,37.7,31.3,24.5,81,65,50,30.15,29.87,18,6,28,0.10
2013-3-9,55.0,46.3,36.1,50.2,41.7,32.9,88,84,79,29.89,29.51,24,5,30,0.24
2013-3-10,36.1,29.7,23.7,32.9,27.1,21.2,92,90,87,29.91,29.66,34,9,42,0.04
2013-3-11,39.4,28.3,22.8,25.7,21.0,16.7,90,75,55,29.98,29.85,17,2,18,0.04
2013-3-12,39.9,29.9,19.6,25.7,20.9,14.4,85,70,55,30.30,29.98,15,4,22,0.00
2013-3-13,44.8,30.4,19.0,24.3,18.9,13.2,79,64,43,30.41,30.20,12,2,14,0.00
2013-3-14,53.8,42.2,32.5,40.3,31.1,21.5,82,65,57,30.20,30.03,13,3,21,0.00
2013-3-15,60.8,45.6,35.2,44.3,37.0,30.5,86,73,52,30.04,29.70,15,3,16,0.00
2013-3-16,39.9,33.8,29.8,35.9,26.5,22.4,86,75,62,30.15,29.83,24,8,29,0.00
2013-3-17,46.2,34.8,24.6,32.5,24.7,18.1,82,67,51,30.12,29.72,19,6,23,0.00
2013-3-18,37.9,34.4,27.3,32.6,21.9,14.7,87,62,42,30.03,29.69,28,6,28,0.08
2013-3-19,49.6,33.7,23.2,25.8,18.1,13.0,67,54,35,30.30,30.02,21,4,22,0.00
2013-3-20,34.3,25.4,16.7,14.3,9.4,5.0,67,52,37,30.37,30.08,21,5,24,0.00
2013-3-21,35.4,29.1,22.6,16.3,12.9,10.6,62,51,40,30.08,29.90,11,4,14,0.00
2013-3-22,38.7,32.9,28.0,23.2,18.3,15.6,65,55,47,30.01,29.94,8,2,13,0.00
2013-3-23,39.9,33.6,29.3,27.6,24.1,19.5,85,69,48,30.09,29.99,21,6,21,0.00
2013-3-24,35.1,29.6,26.2,26.1,22.1,18.9,85,74,57,30.06,30.00,18,8,24,0.00
2013-3-25,37.2,29.7,25.5,25.5,21.9,18.3,84,73,56,30.31,30.05,17,7,21,0.00
2013-3-26,41.5,30.2,18.5,23.8,18.9,12.3,77,64,47,30.35,30.20,10,1,13,0.00
2013-3-27,52.0,41.9,28.0,29.9,26.3,20.5,74,55,41,30.24,30.15,15,5,22,0.00
2013-3-28,59.5,44.9,30.4,35.2,29.6,24.2,79,58,34,30.23,30.12,11,2,12,0.00
2013-3-29,67.1,51.2,33.6,39.8,32.7,27.1,79,53,28,30.20,30.02,21,5,22,0.00
2013-3-30,65.8,56.3,47.7,52.7,41.8,32.3,84,61,34,30.05,29.88,18,4,23,0.20
2013-3-31,56.5,46.8,33.6,39.7,31.5,21.5,84,60,27,30.12,29.92,21,6,27,0.02
2013-4-1,42.4,32.1,23.5,29.4,19.0,13.8,84,60,35,30.32,30.12,17,5,24,0.00
2013-4-2,54.3,39.0,24.1,26.9,21.2,15.8,71,51,33,30.30,30.20,8,1,11,0.00
2013-4-3,57.7,44.5,32.7,30.1,24.2,20.2,62,46,32,30.32,30.18,16,6,24,0.00
2013-4-4,62.1,48.8,34.5,37.4,30.5,23.1,70,50,38,30.19,30.02,13,4,18,0.00
2013-4-5,68.7,53.1,36.1,39.8,33.2,27.2,70,49,34,30.14,29.68,26,7,29,0.00
2013-4-6,70.0,59.2,52.0,45.4,39.7,37.1,65,49,32,29.76,29.58,18,5,23,0.00
2013-4-7,76.3,57.9,44.1,50.3,42.4,36.3,77,58,32,29.83,29.61,30,3,30,0.12
2013-4-8,70.0,59.8,48.7,58.4,52.6,44.7,87,78,63,29.70,29.59,14,3,19,0.14
2013-4-9,62.8,46.5,34.7,58.5,43.2,32.0,92,88,84,29.95,29.57,28,8,36,0.59
2013-4-10,38.8,37.0,34.9,36.2,34.3,32.2,92,90,87,29.95,29.77,22,4,25,0.20
2013-4-11,42.4,36.1,32.7,36.0,31.3,28.4,90,83,75,29.77,29.62,8,1,8,0.04
2013-4-12,45.7,37.9,33.6,32.1,29.4,26.4,84,72,55,29.99,29.70,15,2,19,0.00
2013-4-13,55.6,43.9,30.0,37.8,32.1,24.3,80,64,50,30.01,29.64,10,2,19,0.00
2013-4-14,68.5,53.8,43.5,52.0,43.1,35.3,83,68,53,29.67,29.31,10,2,25,0.27
2013-4-15,50.9,43.3,37.2,34.8,29.7,25.1,70,59,46,30.07,29.65,9,1,12,0.00
2013-4-16,54.3,44.5,36.7,33.1,29.2,27.3,72,56,38,30.22,30.04,11,3,14,0.00
2013-4-17,47.1,42.5,37.2,40.8,36.7,32.2,90,81,58,30.14,29.69,24,4,29,0.49
2013-4-18,38.1,35.3,33.4,34.5,31.3,27.9,91,85,76,29.88,29.67,20,5,30,0.31
2013-4-19,48.0,37.5,29.1,28.1,24.1,21.6,79,60,38,30.08,29.83,6,1,10,0.00
2013-4-20,51.1,39.8,26.8,26.5,22.4,19.9,77,52,32,30.23,30.07,9,2,11,0.00
2013-4-21,71.2,55.6,45.0,48.5,38.0,26.5,85,54,33,30.12,29.96,14,3,57,0.31
2013-4-22,55.9,45.2,33.6,51.4,41.0,28.3,90,86,81,30.18,29.92,11,2,17,0.65
2013-4-23,43.0,35.4,30.0,28.3,24.4,21.1,81,65,50,30.23,30.12,12,3,16,0.00
2013-4-24,60.6,42.6,27.1,36.9,27.8,20.5,76,58,30,30.18,30.01,12,1,17,0.00
2013-4-25,69.4,51.8,31.8,37.3,33.3,25.8,79,53,29,30.22,29.99,16,2,21,0.00
2013-4-26,75.4,60.6,50.5,49.1,42.6,34.8,75,52,39,30.16,29.99,12,4,21,0.00
2013-4-27,70.3,57.7,45.7,52.0,46.9,40.5,85,69,47,30.19,29.92,7,1,10,0.00
2013-4-28,81.1,65.7,48.4,54.8,49.0,43.7,85,58,35,29.93,29.65,14,2,28,0.00
2013-4-29,84.0,68.9,56.5,57.9,51.6,46.7,74,56,31,29.75,29.47,11,1,13,0.00
2013-4-30,75.9,70.0,61.5,55.5,48.1,38.7,58,46,38,29.88,29.46,22,5,31,0.00
2013-5-1,61.5,42.8,33.4,41.7,35.9,30.7,91,78,43,30.37,29.87,32,8,35,0.26
2013-5-2,50.2,41.6,33.6,32.5,30.5,27.0,91,67,46,30.51,30.36,21,5,33,0.08
2013-5-3,48.4,41.6,33.1,32.3,29.1,26.3,77,62,47,30.36,30.02,23,6,29,0.00
2013-5-4,44.8,40.2,36.1,40.2,35.9,31.2,89,84,74,30.12,29.96,23,7,28,0.02
2013-5-5,58.3,48.5,42.1,48.9,43.4,39.1,90,83,70,30.15,30.07,11,2,16,0.04
2013-5-6,67.6,56.1,48.9,53.0,48.0,45.0,87,75,57,30.13,30.01,10,2,11,0.00
2013-5-7,79.9,62.4,46.0,55.8,50.2,41.5,85,67,39,30.06,29.92,12,2,14,0.04
2013-5-8,73.2,63.9,57.7,59.8,56.3,53.2,86,77,61,29.94,29.87,11,2,13,0.04
2013-5-9,70.9,60.8,56.8,59.9,55.9,51.7,91,84,61,29.98,29.84,18,2,21,1.04
2013-5-10,70.5,58.7,49.8,52.4,47.8,44.9,87,69,44,30.07,29.97,15,4,20,0.00
2013-5-11,61.0,55.5,45.0,46.5,31.8,23.1,79,43,25,30.23,30.00,18,4,30,0.00
2013-5-12,66.4,54.1,36.7,34.3,29.4,26.3,69,42,24,30.25,30.08,9,1,11,0.00
2013-5-13,83.8,67.8,49.3,50.5,42.7,29.5,58,41,28,30.09,29.81,19,5,25,0.00
2013-5-14,98.8,80.7,60.6,61.6,53.0,45.0,76,43,19,29.82,29.60,21,3,32,0.00
2013-5-15,85.8,74.5,63.1,47.5,42.2,36.8,52,33,19,29.90,29.75,17,4,25,0.00
2013-5-16,89.2,76.0,62.8,64.4,55.1,44.8,69,49,37,29.84,29.73,14,3,20,0.00
2013-5-17,88.2,77.7,66.6,64.7,59.6,57.1,74,55,38,29.87,29.78,16,4,18,0.00
2013-5-18,88.5,78.5,65.3,65.0,61.5,56.9,75,57,42,29.86,29.67,23,5,28,0.00
2013-5-19,82.6,69.7,62.8,66.5,60.9,54.3,86,74,57,29.78,29.47,14,2,28,0.53
2013-5-20,80.8,69.5,58.8,59.7,55.2,49.5,85,62,43,29.63,29.47,16,4,27,0.00
2013-5-21,72.1,63.3,57.0,54.9,49.9,46.5,74,62,48,29.70,29.57,13,4,19,0.00
2013-5-22,65.3,58.5,54.3,54.0,49.3,47.0,80,72,61,29.95,29.69,8,2,14,0.00
2013-5-23,73.4,61.8,52.9,50.8,46.4,40.5,83,60,32,30.20,29.95,19,4,26,0.00
2013-5-24,80.4,67.3,53.2,52.0,46.8,41.8,67,49,33,30.26,29.99,25,6,27,0.00
2013-5-25,81.5,69.2,59.4,67.5,57.8,45.3,86,68,47,30.08,29.92,17,4,22,0.24
2013-5-26,81.7,70.9,64.0,69.2,63.2,58.4,87,77,64,29.97,29.80,15,4,24,0.00
2013-5-27,80.4,69.9,61.0,64.8,61.7,57.8,91,76,57,29.88,29.56,21,4,108,0.82
2013-5-28,84.0,73.9,63.1,65.7,62.6,58.9,91,69,48,29.70,29.60,12,2,22,0.00
2013-5-29,77.4,71.0,64.2,68.8,63.7,59.4,88,78,68,29.68,29.50,17,5,26,0.47
2013-5-30,80.4,69.2,62.4,64.3,60.6,53.6,91,75,54,29.61,29.47,19,5,113,0.18
2013-5-31,91.8,72.6,58.3,59.8,52.5,44.9,80,52,33,29.69,29.58,14,3,21,0.00
2013-6-1,66.4,61.3,55.9,54.7,49.7,45.8,74,66,51,30.00,29.63,17,4,20,0.00
2013-6-2,69.4,60.7,52.9,48.3,45.4,42.6,79,59,41,30.10,29.98,12,2,15,0.00
2013-6-3,82.2,66.3,50.7,53.7,48.7,44.4,80,55,36,30.02,29.80,21,5,32,1.26
2013-6-4,78.6,68.5,59.7,63.3,58.4,51.7,85,71,57,29.96,29.84,14,2,23,0.04
2013-6-5,75.9,66.6,60.1,61.3,52.3,47.1,89,62,40,30.03,29.93,13,2,57,0.00
2013-6-6,76.3,67.0,56.1,57.6,50.6,46.8,77,57,39,29.98,29.92,13,1,16,0.00
2013-6-7,78.6,67.2,55.0,54.7,50.3,47.7,78,57,38,30.02,29.86,10,0,12,0.00
2013-6-8,70.2,63.7,58.8,62.2,55.4,48.1,88,75,57,29.87,29.63,20,3,24,0.65
2013-6-9,70.5,64.7,61.3,62.0,58.9,56.5,89,82,70,29.81,29.68,10,0,14,0.12
2013-6-10,81.0,69.5,58.8,64.5,60.1,55.0,88,73,54,29.87,29.74,14,1,18,0.00
2013-6-11,88.9,78.8,68.5,71.6,65.8,61.6,81,66,49,29.81,29.67,12,1,16,0.00
2013-6-12,93.0,80.1,65.5,70.6,63.4,52.0,74,57,46,30.00,29.64,12,3,23,0.00
2013-6-13,90.3,71.1,59.7,62.5,56.6,52.3,81,62,35,30.08,29.94,10,1,11,0.04
2013-6-14,88.9,74.6,64.2,71.1,63.8,57.7,85,70,55,30.00,29.73,25,5,28,0.10
2013-6-15,87.4,76.4,66.7,71.1,65.7,62.5,89,71,50,29.93,29.78,12,3,18,0.00
2013-6-16,89.6,78.1,68.7,69.1,63.2,55.5,89,63,36,29.97,29.91,12,1,13,0.00
2013-6-17,92.5,78.8,65.5,65.2,58.7,55.0,80,53,33,29.99,29.91,8,1,13,0.00
2013-6-18,83.5,73.8,65.8,66.6,58.5,53.7,82,61,38,30.05,29.93,6,0,8,0.12
2013-6-19,91.2,78.3,64.6,67.4,62.3,57.3,80,60,39,29.98,29.86,14,4,22,0.00
2013-6-20,93.2,82.8,70.7,71.8,68.1,62.2,79,62,47,29.93,29.78,20,6,30,0.00
2013-6-21,95.4,86.9,77.9,73.8,70.9,68.5,76,60,44,29.85,29.73,22,6,24,0.00
2013-6-22,93.6,79.4,71.2,71.9,66.0,60.8,78,65,45,29.98,29.75,25,5,28,0.04
2013-6-23,85.8,77.4,66.7,69.2,66.3,61.7,85,69,56,29.91,29.69,17,2,25,0.25
2013-6-24,87.3,78.1,68.0,73.7,69.2,62.3,87,75,56,29.95,29.68,17,3,27,0.24
2013-6-25,92.1,81.9,72.3,75.0,69.9,66.5,84,68,50,29.78,29.64,14,4,20,0.00
2013-6-26,103.8,84.2,74.5,74.1,67.5,61.9,89,60,37,29.87,29.64,11,2,17,0.00
2013-6-27,88.5,76.0,69.4,71.4,66.9,63.7,86,74,50,29.98,29.85,7,0,11,0.12
2013-6-28,100.6,79.0,68.5,69.1,60.2,54.2,85,55,35,29.96,29.87,19,2,19,0.00
2013-6-29,93.7,74.8,65.5,61.5,56.6,53.0,72,54,33,29.92,29.86,21,4,29,0.00
2013-6-30,80.2,71.5,61.2,59.7,54.2,49.9,79,57,37,30.08,29.92,17,3,20,0.00
2013-7-1,89.1,74.2,57.4,59.3,53.6,49.0,79,52,30,30.16,30.08,15,2,18,0.00
2013-7-2,87.4,72.1,61.5,62.4,57.6,53.4,81,63,33,30.14,30.03,9,0,13,0.04
2013-7-3,87.1,74.1,59.5,65.9,58.1,52.8,85,60,36,30.04,29.92,9,1,13,0.00
2013-7-4,89.8,79.0,64.0,62.2,56.9,54.0,71,48,32,29.96,29.86,16,4,21,0.00
2013-7-5,90.9,81.1,68.5,65.0,60.6,54.7,65,50,39,29.89,29.80,16,4,21,0.00
2013-7-6,93.7,81.8,72.0,68.1,64.0,59.8,67,56,42,29.84,29.77,20,6,22,0.00
2013-7-7,97.9,86.1,73.9,71.3,66.4,60.3,72,53,40,29.89,29.79,15,4,114,0.00
2013-7-8,96.6,85.6,76.6,73.8,71.4,70.0,82,64,43,29.94,29.85,11,2,16,0.00
2013-7-9,96.4,86.5,76.5,75.2,72.3,69.0,83,64,46,29.94,29.83,10,2,17,0.04
2013-7-10,93.0,80.0,70.7,70.2,64.6,60.9,83,61,44,30.07,29.94,12,2,17,0.00
2013-7-11,94.1,79.9,66.0,65.6,61.1,58.9,81,55,37,30.07,29.94,19,2,25,0.00
2013-7-12,93.0,82.7,70.3,69.7,64.1,58.2,67,54,38,29.97,29.88,18,6,28,0.00
2013-7-13,94.8,84.2,75.4,72.4,65.9,60.0,65,55,46,29.95,29.89,19,7,25,0.00
2013-7-14,90.5,81.8,73.2,65.4,61.3,58.0,65,51,35,30.12,29.95,19,5,23,0.00
2013-7-15,95.0,81.9,67.1,68.9,64.9,60.0,78,58,40,30.17,30.08,10,2,19,0.00
2013-7-16,95.5,85.1,71.8,71.8,66.1,63.6,80,55,39,30.23,30.13,11,1,15,0.00
2013-7-17,99.7,87.5,74.3,73.7,68.5,66.5,79,55,39,30.26,30.13,12,2,14,0.00
2013-7-18,100.6,88.3,76.5,71.8,67.7,64.7,73,52,37,30.14,29.90,21,3,24,0.00
2013-7-19,101.7,85.9,76.3,72.0,65.9,61.3,67,52,36,29.92,29.85,11,1,16,0.00
2013-7-20,93.0,80.9,67.6,64.5,61.7,54.8,77,54,32,29.98,29.83,15,1,17,0.00
2013-7-21,95.0,82.6,72.5,71.2,67.1,62.3,77,61,41,29.89,29.75,8,1,15,0.00
2013-7-22,97.7,84.1,72.1,76.0,70.3,63.1,84,65,44,29.83,29.72,10,1,15,0.26
2013-7-23,82.9,74.7,68.4,64.2,62.5,59.9,84,67,48,29.99,29.81,21,2,21,0.08
2013-7-24,84.6,75.1,62.4,62.6,59.8,55.8,79,60,46,30.05,29.96,7,0,13,0.00
2013-7-25,88.2,78.3,71.2,67.8,63.9,60.6,82,63,45,30.01,29.94,13,2,19,0.02
2013-7-26,78.3,72.5,63.7,67.2,58.7,51.5,86,64,43,30.08,29.94,17,2,24,0.00
2013-7-27,75.9,66.6,57.0,54.0,49.6,46.0,78,56,37,30.10,29.97,15,1,19,0.00
2013-7-28,78.6,66.8,52.3,53.6,48.6,45.4,78,55,35,30.04,29.97,7,1,14,0.00
2013-7-29,70.3,65.9,61.0,63.0,56.9,48.9,88,73,57,30.03,29.97,11,1,16,0.10
2013-7-30,78.1,71.2,65.8,67.5,64.6,62.9,91,80,66,30.07,29.99,10,0,12,0.00
2013-7-31,87.4,75.9,63.7,68.2,64.4,59.8,88,70,47,30.10,30.01,6,0,10,0.00
2013-8-1,90.5,76.1,64.2,68.9,64.2,58.9,86,69,42,30.06,29.83,18,2,24,0.18
2013-8-2,86.4,76.6,68.5,69.3,65.2,59.2,86,69,53,29.99,29.82,14,2,15,0.00
2013-8-3,82.8,73.4,65.1,60.3,58.2,56.5,77,60,43,30.15,30.00,13,2,18,0.00
2013-8-4,85.1,73.8,62.2,65.2,59.7,54.5,77,62,45,30.15,29.99,16,3,21,0.00
2013-8-5,90.5,78.1,70.7,75.3,70.3,64.3,87,77,60,29.99,29.81,11,1,15,0.02
2013-8-6,91.6,79.0,67.6,74.7,70.8,63.8,91,77,57,29.94,29.76,13,1,19,0.35
2013-8-7,83.5,76.9,69.1,72.3,65.2,60.3,88,69,49,29.98,29.80,12,1,14,0.00
2013-8-8,82.9,74.4,67.5,66.2,63.0,60.6,80,68,54,30.00,29.92,9,0,11,0.00
2013-8-9,83.5,74.3,63.7,69.6,62.8,58.7,86,69,47,30.11,29.98,11,1,14,0.00
2013-8-10,85.6,74.1,60.8,65.0,60.5,55.7,83,64,46,30.17,30.04,11,2,17,0.00
2013-8-11,90.7,78.9,67.6,70.6,65.1,58.8,80,64,48,30.09,29.95,11,2,17,0.00
2013-8-12,84.9,76.8,70.0,69.0,64.4,59.8,83,67,43,30.05,29.95,11,2,15,0.00
2013-8-13,82.9,73.0,63.7,61.6,58.4,54.3,81,62,40,30.14,30.04,9,1,15,0.00
2013-8-14,82.8,71.1,61.0,61.5,57.2,53.6,79,63,44,30.16,30.04,11,2,17,0.04
2013-8-15,72.7,66.2,62.2,61.9,59.1,56.8,87,78,67,30.07,30.00,15,3,19,0.57
2013-8-16,79.3,70.3,63.7,59.4,57.9,56.3,81,66,48,30.14,30.06,13,3,20,0.00
2013-8-17,82.6,71.6,61.3,61.8,57.3,54.6,84,63,43,30.16,30.07,14,2,20,0.00
2013-8-18,82.0,70.9,57.0,61.0,57.5,50.9,83,64,46,30.12,30.01,13,2,21,0.00
2013-8-19,88.7,77.9,66.9,68.9,64.9,60.1,80,65,51,30.04,29.90,21,4,21,0.00
2013-8-20,91.2,80.9,71.8,71.6,68.2,65.3,81,66,52,29.93,29.87,16,4,20,0.00
2013-8-21,93.7,82.8,73.0,72.9,68.8,65.6,78,64,49,29.96,29.90,13,4,22,0.00
2013-8-22,88.9,79.4,71.4,70.1,67.4,64.2,83,68,49,30.07,29.94,13,2,17,0.02
2013-8-23,92.3,81.2,71.1,73.0,68.5,66.3,85,67,46,30.04,29.94,15,3,22,0.00
2013-8-24,92.3,83.8,75.9,73.3,70.1,67.0,76,64,52,30.03,29.96,19,6,26,0.00
2013-8-25,95.7,85.0,75.0,73.4,70.8,68.1,80,64,45,30.07,30.00,17,4,22,0.00
2013-8-26,96.1,85.7,75.6,73.5,70.1,67.7,78,61,45,30.04,29.91,17,4,21,0.00
2013-8-27,96.6,85.7,76.8,71.7,68.2,64.6,69,57,40,29.92,29.86,18,4,18,0.00
2013-8-28,95.7,83.7,72.5,71.3,65.4,62.3,73,56,35,29.97,29.89,8,2,16,0.00
2013-8-29,96.1,83.8,71.2,74.6,69.6,64.5,82,64,43,29.97,29.87,11,2,18,0.00
2013-8-30,95.2,83.8,73.9,77.0,71.4,67.5,81,67,48,29.88,29.81,12,1,14,0.00
2013-8-31,92.5,81.8,73.2,74.7,70.5,67.4,87,71,46,29.87,29.75,5,0,8,0.00
2013-9-1,82.0,75.8,68.2,69.9,64.2,58.6,89,69,46,29.98,29.73,12,2,26,0.31
2013-9-2,78.1,69.1,61.3,61.3,56.3,46.3,85,66,33,30.07,29.97,11,1,13,0.00
2013-9-3,84.9,71.5,57.2,64.0,58.7,51.9,84,66,46,30.06,29.96,9,2,13,0.00
2013-9-4,87.8,78.1,70.3,65.5,61.9,59.0,70,59,44,30.12,29.99,9,2,13,0.00
2013-9-5,87.3,78.0,70.3,67.1,64.3,61.7,83,64,49,30.15,30.05,11,2,15,0.06
2013-9-6,92.1,80.4,70.0,69.7,65.7,60.3,74,62,47,30.07,29.87,17,5,23,0.00
2013-9-7,90.0,80.7,73.0,72.6,68.7,65.0,84,67,51,29.90,29.83,11,2,13,0.00
2013-9-8,92.1,80.8,70.3,75.0,70.8,66.3,88,73,54,29.89,29.76,11,2,14,0.00
2013-9-9,96.3,85.0,75.9,70.9,63.3,57.5,77,51,29,29.82,29.74,19,4,114,0.00
2013-9-10,93.2,79.8,72.0,71.3,64.5,58.0,85,61,41,30.03,29.82,14,2,37,0.37
2013-9-11,85.8,76.2,70.9,72.9,69.0,65.6,90,79,52,30.08,30.00,8,0,11,0.16
2013-9-12,78.6,71.6,61.9,68.3,57.0,47.7,88,63,35,30.19,30.07,20,2,21,0.00
2013-9-13,74.8,64.9,55.2,54.1,51.2,49.4,82,63,42,30.19,30.03,8,0,11,0.00
2013-9-14,81.1,68.3,57.0,55.4,52.2,48.0,76,58,40,30.04,29.82,17,4,21,0.00
2013-9-15,70.3,67.8,63.3,64.1,58.0,54.2,87,71,58,30.19,29.81,21,4,24,0.10
2013-9-16,71.8,63.8,57.0,54.8,53.0,51.4,84,69,55,30.27,30.15,8,2,8,0.00
2013-9-17,73.0,65.6,59.4,66.4,61.0,54.7,89,85,79,30.14,29.84,6,2,6,0.16
2013-9-18,89.8,78.0,67.3,71.2,67.3,64.2,91,72,52,29.83,29.66,9,4,9,0.00
2013-9-19,78.3,72.1,61.3,68.2,61.5,51.1,86,70,59,29.96,29.69,8,2,8,0.14
2013-9-20,69.4,58.4,53.2,52.6,47.3,44.6,78,68,45,30.04,29.93,7,1,7,0.00
2013-9-21,59.2,49.8,46.6,50.2,43.8,41.0,84,80,71,30.00,29.96,8,0,10,0.00
2013-10-25,57.6,52.2,46.0,35.8,32.5,28.8,52,48,44,30.25,30.00,9,5,9,1.75
2013-10-26,50.9,44.3,34.3,34.5,30.7,26.5,73,60,44,30.17,29.97,12,3,12,0.00
2013-10-27,65.8,47.0,30.9,38.6,31.9,23.8,76,59,38,30.07,29.78,7,2,7,0.00
2013-10-28,55.4,47.4,41.2,38.4,35.1,32.7,72,63,49,30.15,29.93,16,6,16,0.00
2013-10-29,53.4,48.6,43.9,51.4,44.6,37.8,93,86,74,30.12,29.91,5,2,5,0.16
2013-10-30,62.8,51.0,45.0,57.5,47.5,40.4,93,88,81,29.91,29.73,5,0,5,0.04
2013-10-31,57.6,46.9,40.6,45.4,39.0,35.5,86,75,55,29.70,29.47,6,1,6,0.00
2013-11-1,59.5,47.6,40.5,41.7,38.8,34.8,82,72,45,29.96,29.56,8,3,23,0.00
2013-11-5,46.0,41.4,35.8,41.8,36.3,31.3,90,83,71,30.10,29.80,15,4,15,0.53
2013-11-6,46.8,39.2,34.3,35.8,32.8,28.8,89,78,65,30.22,30.00,13,2,13,0.00
2013-11-7,46.9,37.1,30.7,32.1,26.8,22.7,84,69,41,30.36,30.22,6,1,6,0.00
2013-11-8,60.4,47.2,32.7,36.8,32.1,25.7,75,58,40,30.22,29.70,18,6,18,0.00
2013-11-9,57.6,47.7,41.4,35.5,33.5,30.8,71,59,43,30.30,29.88,4,1,4,0.00
2013-11-10,52.0,44.0,34.3,32.9,29.4,26.2,73,58,44,30.36,30.11,10,3,10,0.00
2013-11-11,45.7,33.9,20.8,36.4,23.4,10.1,83,66,52,30.71,30.06,15,6,15,0.00
2013-11-12,19.6,16.7,14.7,9.4,8.1,7.1,71,68,64,30.81,30.72,3,0,3,0.00
2013-11-17,53.4,47.5,40.3,42.7,37.3,33.3,76,68,57,30.00,29.33,5,2,5,0.06
2013-11-18,52.9,40.8,31.6,32.7,29.1,24.6,78,65,44,30.21,30.02,5,2,5,0.00
2013-11-19,60.4,47.6,35.8,34.9,27.6,24.0,67,49,33,30.14,29.84,18,7,18,0.00
2013-11-20,56.1,49.0,41.7,34.6,31.7,26.4,73,53,42,29.88,29.73,17,9,17,0.00
2013-11-21,41.2,30.8,23.5,33.8,23.5,18.1,82,74,67,30.49,29.91,21,8,21,0.00
2013-11-22,30.6,23.5,16.5,17.6,12.9,9.1,78,64,51,30.65,30.51,14,2,14,0.00
2013-11-23,23.5,18.9,14.2,13.8,7.2,3.6,71,60,47,30.82,30.58,12,3,12,0.00
2013-11-24,31.8,27.7,13.8,16.1,13.7,5.0,68,55,51,30.70,30.16,15,7,25,0.00
2013-11-25,43.3,33.7,26.8,28.9,21.7,12.8,72,61,52,30.17,30.07,17,3,17,0.00
2013-11-26,32.5,27.2,19.0,24.0,14.7,6.6,76,60,41,30.39,30.15,22,3,28,0.00
2013-11-27,32.9,24.1,13.3,16.6,11.2,5.0,70,58,45,30.38,29.99,17,3,21,0.00
2013-11-28,34.3,28.0,20.1,20.8,16.7,11.5,74,63,50,30.44,30.01,21,4,25,0.00
2013-11-29,43.9,31.4,19.2,27.5,20.6,11.0,74,65,52,30.44,30.09,17,4,23,0.00
2013-11-30,52.0,37.4,28.0,33.8,26.3,20.5,75,65,47,30.12,30.02,8,0,9,0.00
2013-12-1,48.0,36.1,27.0,30.2,25.4,20.5,78,66,47,30.12,29.82,6,0,7,0.00
2013-12-2,56.5,43.0,34.3,37.4,31.6,26.7,79,65,46,29.81,29.49,11,3,15,0.00
2013-12-3,44.6,38.7,35.4,34.1,31.2,27.8,85,75,66,29.65,29.46,17,4,24,0.00
2013-12-4,36.3,25.2,18.1,31.9,18.5,7.9,87,76,64,30.03,29.61,13,3,18,0.00
2013-12-5,19.9,14.4,10.6,8.4,1.5,-4.8,66,57,46,30.39,30.02,14,3,20,0.00
2013-12-6,14.2,7.4,2.5,-2.7,-5.6,-8.3,61,55,46,30.66,30.38,10,3,18,0.00
2013-12-7,14.9,8.5,0.9,5.2,-4.1,-8.8,65,57,46,30.69,30.36,10,2,13,0.00
2013-12-8,27.7,18.3,12.4,14.6,9.3,4.2,75,68,56,30.35,29.97,10,4,14,0.00
2013-12-9,15.6,9.2,1.6,4.9,-0.6,-7.0,75,64,54,30.30,30.03,13,3,20,0.00
2013-12-10,28.9,21.8,14.2,23.6,12.3,4.9,81,67,52,30.21,30.00,15,3,19,0.00
2013-12-11,28.8,13.0,5.7,22.7,2.3,-4.0,78,62,52,30.63,30.22,17,3,30,0.00
2013-12-12,33.3,21.8,10.0,20.3,12.1,0.2,76,66,57,30.40,30.04,8,2,13,0.00
2013-12-13,34.9,25.7,19.0,24.1,18.6,12.6,80,74,64,30.06,29.86,17,4,23,0.00
2013-12-14,25.2,20.5,15.6,17.5,12.9,8.4,79,72,63,30.19,30.06,18,3,21,0.00
2013-12-15,31.1,23.5,17.4,20.0,15.3,10.8,76,71,61,30.13,29.92,8,1,9,0.00
2013-12-16,43.9,28.4,15.4,32.4,20.7,8.6,80,73,61,30.13,29.93,10,1,17,0.00
2013-12-17,40.3,32.1,26.2,27.4,21.8,16.2,82,67,43,30.25,30.06,8,2,16,0.00
2013-12-18,49.8,36.4,28.9,32.9,25.4,18.4,76,65,51,30.06,29.68,13,2,18,0.00
2013-12-19,34.9,29.5,19.9,26.4,22.4,15.3,82,75,63,29.86,29.70,20,6,26,0.00
2013-12-20,21.0,18.6,15.4,15.3,12.4,10.1,83,77,71,29.95,29.85,16,3,22,0.00
2013-12-21,26.4,22.7,20.5,18.3,15.6,12.7,82,74,65,29.86,29.76,16,4,23,0.00
2013-12-22,22.6,18.0,9.7,18.0,10.0,0.8,83,71,60,30.36,29.84,14,4,22,0.00
2013-12-23,13.5,7.6,2.5,1.3,-4.5,-8.5,69,58,45,30.56,30.36,10,2,14,0.00
2013-12-24,25.7,14.9,2.5,20.1,6.0,-7.7,79,67,59,30.48,30.07,22,6,33,0.00
2013-12-25,41.4,29.0,21.7,28.9,20.5,14.7,82,71,53,30.27,30.16,14,2,23,0.00
2013-12-26,44.6,31.6,21.4,27.3,20.9,14.5,78,65,47,30.22,30.06,8,1,14,0.00
2013-12-27,58.6,37.2,20.8,32.0,22.2,13.2,78,57,32,30.23,30.03,14,2,21,0.00
2013-12-28,56.5,38.2,17.8,30.8,24.0,5.8,75,59,32,30.12,29.71,19,4,32,0.00
2013-12-29,17.4,10.5,5.7,5.5,-7.1,-12.7,62,45,29,30.36,30.12,20,4,27,0.00
2013-12-30,32.7,19.3,7.9,21.1,3.4,-6.2,66,50,39,30.24,30.01,15,4,20,0.00
2013-12-31,33.1,18.1,10.8,18.7,7.9,2.8,70,64,49,30.25,29.98,20,4,23,0.00
2014-1-1,14.0,9.5,5.7,4.0,1.5,-2.3,75,70,62,30.37,30.09,16,6,25,0.00
2014-1-2,11.5,6.2,1.4,0.2,-3.1,-7.1,71,65,55,30.43,30.31,11,1,13,0.00